Location: Fort Wayne
(41.1310°N, 85.1290°W)
Time: 17:36:53
(UTC-04:00)

SR - Visible Passes

Search period start: 22 August 2014 00:00
Search period end: 01 September 2014 00:00
Orbit: 575 x 891 km, 66.7° (Epoch: 22 August)

Date Brightness Start Highest point End Pass type
(mag) Time Alt. Az. Time Alt. Az. Time Alt. Az.
22 Aug ? 05:15:57 10° SE 05:18:31 13° E 05:21:09 10° ENE visible
23 Aug ? 06:06:27 10° S 06:11:41 52° ESE 06:17:19 10° NE visible
24 Aug ? 05:19:15 10° SSE 05:23:46 27° ESE 05:28:33 10° NE visible
25 Aug ? 04:33:18 10° SE 04:36:01 14° ESE 04:38:49 10° ENE visible
25 Aug ? 06:11:52 10° SSW 06:17:20 83° WNW 06:23:15 10° NNE visible
26 Aug ? 05:24:39 14° S 05:29:12 53° ESE 05:34:53 10° NE visible
27 Aug ? 04:38:17 18° SSE 04:41:16 28° ESE 04:46:08 10° NE visible
27 Aug ? 06:17:54 10° SW 06:23:13 46° NW 06:28:54 10° NNE visible
28 Aug ? 03:51:51 13° ESE 03:53:31 15° ESE 03:56:29 10° ENE visible
28 Aug ? 05:31:24 24° SW 05:34:52 82° WNW 05:40:48 10° NNE visible
29 Aug ? 04:44:54 38° SSE 04:46:43 55° ESE 04:52:26 10° NE visible
29 Aug ? 06:24:33 10° WSW 06:29:19 27° NW 06:34:19 10° N visible
30 Aug ? 03:58:21 29° ESE 03:58:47 29° ESE 04:03:42 10° NE visible
30 Aug ? 05:37:53 26° WSW 05:40:45 45° NW 05:46:26 10° NNE visible
31 Aug ? 03:11:45 15° E 03:11:45 15° E 03:14:08 10° ENE visible
31 Aug ? 04:51:17 59° SW 04:52:24 80° WNW 04:58:20 10° NNE visible
31 Aug ? 06:31:56 10° W 06:35:38 17° NW 06:39:26 10° N visible
